RH
47 44 43 37 38 38 39 40 39 40 40 39 40 41 39 41 39 34 34 57 63 56 53 56 60 65 70 77 83 91 90 91 91 90 89 89 88 87 88 89 88 87 85
50 42 42 38 38 39 40 39 42 40 39 38 38 39 41 40 39 40 34 36 62 62 57 55 57 60 64 67 77 84 86 90 90 91 90 90 90 88 88 89 89 87 86
48 45 42 42 43 41 43 40 41 38 36 35 38 37 35 38 37 39 38 37 37 57 72 62 59 58 59 64 66 72 82 87 89 90 90 92 91 90 88 88 89 88 87
50 45 41 46 47 41 39 40 40 40 38 38 40 36 37 38 40 41 38 45 45 41 52 69 67 62 63 65 65 68 75 83 86 89 89 92 92 91 91 89 88 88 88
52 43 43 48 48 40 42 43 43 45 42 41 38 36 40 41 43 39 42 53 56 54 52 60 70 74 72 72 77 72 64 66 72 77 83 89 91 94 91 91 90 89 89
49 46 40 50 43 41 42 47 52 46 43 45 39 36 43 43 50 42 42 52 48 51 52 55 57 56 87 88 88 89 89 89 87 84 82 81 84 91 94 92 91 92 91
50 49 41 45 45 44 50 51 50 51 44 48 47 44 36 50 48 45 45 49 51 48 48 51 68 79 78 86 87 89 91 91 90 88 88 87 89 95 93 95 93 93 92
49 41 49 46 51 43 50 52 56 51 44 50 56 48 46 43 48 45 44 50 61 73 77 74 77 79 79 77 84 86 89 91 91 88 86 87 90 89 95 94 95 94 93
44 50 49 49 48 45 46 51 55 55 51 48 55 58 56 58 64 47 47 53 64 77 80 82 78 76 77 76 78 80 86 87 88 85 85 86 88 91 89 94 95 95 94
41 45 47 47 48 45 52 49 47 50 53 54 52 50 58 61 81 73 51 52 51 69 82 85 84 80 80 80 80 81 83 85 86 87 85 86 87 86 88 91 92 95 95
40 39 44 45 47 44 50 54 53 53 49 54 57 58 59 58 68 75 72 60 50 55 88 89 89 91 86 84 80 80 82 83 84 86 88 89 91 88 90 89 93 92 95
34 41 39 42 45 45 47 46 50 55 55 56 57 61 65 73 72 80 81 71 66 56 93 95 91 95 95 94 89 84 82 82 83 84 86 89 90 91 93 95 95 94 92
34 42 42 44 41 45 46 43 46 51 54 54 58 60 63 66 70 73 77 77 74 66 95 80 84 86 95 96 96 96 90 84 82 83 84 86 88 89 90 91 94 93 90
36 41 42 43 44 44 44 43 41 42 49 50 57 56 60 67 70 74 84 89 78 71 96 84 81 80 90 93 95 97 96 89 84 81 83 85 86 87 88 89 91 92 95
32 41 42 42 44 44 44 42 42 44 45 47 53 54 53 58 66 71 75 79 91 86 83 76 89 85 82 93 89 85 91 90 86 82 82 83 84 85 86 88 89 90 91
39 40 42 42 43 44 46 45 43 47 49 46 47 53 51 50 51 59 69 72 77 86 93 81 85 95 91 82 90 88 87 84 80 82 81 83 84 85 85 85 86 87 91
40 40 42 45 49 51 48 54 59 55 54 59 54 56 58 55 50 49 52 61 70 77 88 78 72 79 81 81 92 87 78 80 76 77 78 80 81 84 85 85 85 86 87
45 45 46 51 56 59 71 59 62 74 73 68 76 63 68 51 62 56 50 55 58 60 75 84 80 76 83 75 80 82 88 66 68 69 73 74 77 77 82 84 86 86 86
68 72 74 72 74 88 84 89 74 69 77 83 82 81 81 78 83 81 73 68 62 52 62 71 78 72 70 74 73 70 75 75 53 68 67 71 72 74 74 79 84 92 91
82 96 96 96 93 96 96 93 90 92 88 85 82 78 78 78 80 83 87 86 88 75 72 74 82 84 89 89 85 88 83 85 76 55 74 70 69 68 68 70 72 78 91
61 98 95 100 98 90 75 61 62 89 96 84 99 89 75 60 56 60 56 74 83 79 77 79 78 77 82 87 88 90 90 91 98 86 86 81 83 78 76 70 68 69 71
50 52 55 59 67 45 66 64 54 57 58 51 51 44 38 45 49 46 46 55 59 69 70 67 70 75 86 82 82 84 83 87 83 80 86 90 86 92 87 82 64 65 67
42 43 45 46 50 51 61 60 62 39 39 43 44 40 34 33 47 33 37 40 47 52 57 50 62 68 70 73 67 69 74 68 76 73 78 83 81 86 88 82 62 65 63
42 41 43 44 46 48 58 58 61 41 43 45 44 43 43 42 55 57 34 31 35 39 51 46 52 54 52 53 51 42 46 49 50 61 56 70 69 80 80 62 57 59 64
40 42 43 45 46 48 58 59 61 37 40 45 50 53 48 48 64 71 39 35 36 51 46 55 58 59 60 61 61 46 49 44 60 82 79 73 74 78 82 73 58 56 57
40 42 43 47 60 56 60 60 56 40 46 53 53 55 65 59 64 64 46 44 50 64 66 65 66 66 64 67 65 68 62 58 62 67 80 78 72 76 77 79 74 62 58
Wind_Speed
5 6 5 6 6 7 7 8 8 9 9 10 9 10 10 11 12 8 8 13 11 10 14 17 20 21 21 20 16 14 14 15 16 18 18 18 18 18 18 17 17 17 17
5 5 5 6 7 7 7 7 8 8 8 9 10 10 11 11 11 11 9 11 11 10 13 16 17 18 20 21 20 16 14 14 17 18 18 19 19 19 19 18 18 18 18
7 6 6 7 7 7 8 8 8 8 8 8 11 11 10 11 10 10 10 9 10 10 11 12 14 15 16 19 21 21 18 14 12 14 19 19 20 20 21 21 20 20 20
9 7 6 7 7 6 7 7 8 8 9 9 9 10 9 9 9 9 7 10 9 9 8 7 10 11 17 17 18 19 20 16 12 13 14 18 20 21 22 23 22 22 22
9 6 7 7 7 6 7 8 8 9 9 10 11 9 8 6 6 8 8 10 10 12 11 15 16 12 12 15 15 15 17 20 20 19 16 15 18 21 23 23 23 24 24
8 7 6 7 7 6 7 8 9 8 8 11 11 8 6 4 7 8 9 7 8 11 10 11 10 9 19 23 25 25 23 20 19 18 17 17 17 17 22 23 25 25 25
8 8 6 6 7 6 8 9 8 10 8 11 8 9 4 6 8 6 6 6 12 11 9 9 12 11 10 22 26 26 26 25 23 20 20 19 19 14 17 22 25 24 25
8 7 7 6 7 6 8 9 10 8 6 10 9 8 5 2 14 8 8 10 14 12 15 16 15 15 13 10 19 27 28 26 24 22 20 19 19 18 14 16 22 25 27
7 7 7 7 7 7 7 9 10 11 9 9 11 7 5 6 10 10 9 9 10 10 11 12 14 15 14 11 15 20 28 27 25 23 21 21 19 19 18 14 18 24 27
7 8 8 8 7 6 8 8 9 9 8 8 6 8 4 6 4 7 9 8 10 11 12 10 11 12 13 10 18 27 28 27 26 24 23 23 21 18 18 18 15 18 24
7 7 7 7 7 6 7 8 7 8 7 6 7 7 7 4 4 5 7 12 9 7 7 8 10 10 13 12 11 19 28 27 27 26 25 25 24 23 21 16 17 17 21
5 6 6 5 6 6 6 5 6 8 8 8 7 7 7 5 7 5 8 11 13 7 4 6 9 8 9 10 16 21 28 28 27 27 27 27 26 27 25 25 23 15 18
4 6 5 6 5 6 5 5 6 7 8 8 8 6 6 6 6 6 6 9 10 4 3 5 7 8 6 7 10 19 25 28 28 28 29 29 29 29 30 28 27 23 13
5 5 5 6 7 6 6 6 6 6 7 7 9 7 6 6 5 5 5 7 8 6 2 9 5 8 7 7 12 18 10 27 27 29 30 31 31 32 31 31 32 32 29
5 5 6 7 7 7 7 6 7 7 7 8 8 9 7 5 5 5 5 5 5 6 7 6 6 11 8 8 11 9 11 21 27 28 29 31 32 32 32 32 32 33 30
5 6 7 8 7 8 8 8 7 9 9 8 8 10 9 8 7 5 6 6 6 6 5 7 6 7 10 9 10 9 10 12 24 26 28 30 31 32 33 32 33 33 34
6 7 8 8 8 8 8 9 10 10 11 11 11 11 12 11 8 8 6 6 6 6 6 6 7 8 9 11 10 8 8 9 9 23 26 28 29 31 32 32 32 32 32
6 7 7 8 8 9 9 8 11 10 11 11 12 12 12 10 12 12 9 10 8 6 5 9 7 8 9 12 10 9 6 8 8 17 20 24 28 30 30 32 33 32 32
8 8 8 7 8 7 8 8 10 10 10 9 10 10 11 11 11 9 10 10 9 7 8 6 7 8 9 10 10 11 7 8 8 15 17 19 22 26 28 29 31 31 31
8 7 6 6 6 5 6 7 8 7 8 7 8 9 9 11 11 11 9 10 9 8 8 7 7 7 8 10 8 9 9 6 8 10 11 14 16 21 24 27 28 28 29
9 7 6 4 5 4 3 6 9 5 6 6 4 6 7 8 13 13 9 11 11 9 8 8 8 8 9 10 11 9 8 7 5 9 9 8 7 8 11 18 21 27 27
11 10 9 8 6 6 6 8 5 8 7 7 7 8 9 12 7 10 11 15 15 12 11 9 9 10 10 11 11 10 8 7 8 9 10 6 8 7 7 9 22 24 25
9 8 8 8 9 8 5 6 12 7 7 7 8 8 8 9 12 9 7 8 14 16 13 11 10 11 11 13 13 12 10 9 4 8 10 4 8 7 6 8 22 22 24
9 8 7 8 9 7 2 5 11 6 7 8 9 9 9 11 12 13 8 7 9 10 11 9 10 10 11 13 14 13 13 11 4 11 13 6 9 9 5 7 19 20 22
8 8 7 8 8 8 1 6 11 5 6 7 8 11 11 11 16 20 9 8 8 9 8 7 7 9 10 15 17 11 11 10 9 6 11 8 8 10 5 6 8 19 17
8 7 6 7 9 8 3 5 10 3 4 4 5 8 14 11 13 15 11 10 9 9 9 9 7 7 9 10 13 11 10 10 10 5 12 9 9 10 6 6 7 9 9
Wind_Direction
26 26 25 23 20 8 2 355 357 345 337 333 328 317 311 307 300 296 299 311 315 300 301 297 297 296 292 288 289 296 276 246 236 229 220 217 216 214 211 208 207 205 201
26 45 34 28 21 14 360 356 353 340 334 335 327 329 317 308 303 304 301 304 307 276 274 280 290 298 296 290 288 291 294 285 254 236 228 221 217 215 214 210 207 206 202
39 23 37 25 16 8 1 359 351 346 338 338 334 331 319 317 312 314 312 303 306 296 253 267 272 292 299 293 288 283 281 279 285 271 246 227 221 217 214 212 207 205 204
20 33 30 23 0 8 8 358 356 350 342 344 338 327 318 319 323 306 317 347 340 332 319 306 284 293 291 299 291 284 282 288 293 282 271 254 233 221 219 216 210 207 206
24 21 29 23 350 8 13 2 355 353 341 344 333 320 335 317 323 11 349 8 346 9 0 352 350 338 320 302 312 298 286 282 285 290 290 286 257 238 222 221 216 211 207
25 7 38 21 352 16 11 5 353 358 353 350 323 331 299 16 31 354 335 26 345 344 357 352 345 348 45 35 24 17 8 1 346 330 312 295 284 268 240 225 220 220 214
24 25 18 17 357 25 11 9 355 358 7 1 336 331 341 117 32 347 3 19 359 351 351 351 23 10 17 31 21 13 7 360 347 334 321 307 299 304 259 239 229 219 219
32 34 12 19 17 10 19 15 10 3 9 22 360 311 350 168 20 34 3 30 25 26 21 22 24 19 17 16 19 14 7 1 352 346 334 318 302 289 289 257 234 226 218
44 31 34 26 19 17 17 16 13 20 3 24 27 1 340 360 333 17 360 37 38 37 26 16 20 19 16 17 21 15 10 3 357 352 346 343 321 290 276 266 248 230 224
42 31 34 26 29 29 22 18 25 18 11 20 14 11 10 320 345 321 341 360 30 36 32 22 12 17 12 13 23 17 13 9 3 0 359 356 342 328 289 272 249 247 229
51 45 33 36 33 31 33 27 28 30 29 26 22 7 4 16 49 313 318 340 342 32 44 31 22 9 7 6 18 17 14 12 9 8 8 10 4 2 350 296 264 237 239
76 43 52 46 46 37 32 37 30 46 36 42 26 26 16 19 357 350 329 327 330 357 72 49 32 16 12 1 6 15 16 14 14 17 17 19 17 16 12 13 356 303 246
69 61 46 48 49 44 42 34 39 45 44 38 37 32 29 24 8 353 334 333 324 335 355 49 30 27 15 6 8 13 13 13 21 21 25 24 24 24 23 19 17 16 326
74 67 71 61 54 43 45 34 46 45 42 44 33 39 51 30 16 11 346 335 339 355 139 22 48 20 14 19 15 13 4 18 23 28 29 28 26 28 29 25 27 25 17
113 83 71 69 56 49 42 53 49 43 48 44 39 30 33 53 36 22 0 354 345 332 351 21 7 12 9 3 24 22 18 19 24 28 30 31 31 31 30 30 32 31 26
100 90 73 62 59 55 48 42 50 50 43 40 42 33 30 14 31 46 18 7 9 344 319 19 9 8 9 354 2 15 23 25 28 28 31 31 30 31 32 30 31 33 31
94 81 74 74 62 52 61 66 55 40 54 39 34 35 25 22 29 10 21 28 14 8 337 3 11 6 10 0 350 6 15 20 27 27 29 32 32 31 30 31 31 32 33
91 86 86 81 69 73 52 56 73 61 49 49 36 36 27 24 19 20 12 8 1 34 4 352 5 3 6 1 349 1 9 16 24 29 29 29 31 32 31 30 29 30 30
76 68 65 80 86 87 83 64 59 65 62 54 47 44 37 28 28 20 19 9 358 2 10 4 6 13 3 4 356 360 22 3 18 16 25 27 30 30 30 29 30 28 29
123 114 117 110 106 97 92 88 78 79 72 62 62 53 49 42 31 15 30 17 356 358 6 14 12 10 13 1 357 354 1 30 21 16 3 25 31 32 30 29 28 28 27
133 142 137 135 137 92 98 98 94 79 111 91 131 104 53 66 58 49 30 25 9 12 14 11 17 12 10 360 359 343 353 349 69 23 346 20 13 34 28 29 27 25 27
160 158 151 136 119 83 43 19 30 98 70 60 68 58 60 31 92 74 67 60 45 19 18 14 21 10 10 359 342 335 349 344 1 31 340 29 3 23 47 32 28 25 26
160 156 149 136 113 97 61 3 343 79 73 68 57 52 52 50 12 12 73 72 68 42 22 16 24 16 6 357 342 338 342 333 23 29 348 27 16 11 8 45 29 26 21
161 155 146 129 110 94 68 330 330 101 87 63 48 46 48 41 25 357 353 30 42 39 30 21 25 15 10 3 349 339 342 341 40 60 8 334 17 352 342 19 40 18 25
159 149 148 137 127 124 130 321 308 123 107 93 83 45 28 41 18 359 4 13 27 33 23 21 21 19 13 20 12 359 4 3 354 58 25 317 9 339 337 16 23 21 24
150 138 135 116 88 122 119 349 344 104 106 103 69 93 57 31 24 16 10 11 14 356 354 348 1 11 9 17 25 27 2 7 355 354 26 336 353 352 331 26 24 22 358